User: anonymous   Login
Location: Dortmund
(51.5019°N, 7.6520°E)
Time: 04:46:38
(UTC+02:00)
Language:

ISS - Orbit

View from above orbital plane
View from above orbital plane
View from above satellite
View from above satellite

Ground track
Ground track

The orbit data is extracted from the following two-line orbital elements,

1 25544U 98067A   18268.52547184  .00016717  00000-0  10270-3 0  9019
2 25544  51.6373 238.6885 0003885 206.9748 153.1203 15.53729445 14114
Epoch (UTC): 25 September 2018 12:36:40
Eccentricity: 0.0003885
inclination: 51.6373°
perigee height: 403 km
apogee height: 408 km
right ascension of ascending node: 238.6885°
argument of perigee: 206.9748°
revolutions per day: 15.53729445
mean anomaly at epoch: 153.1203°
orbit number at epoch: 1411

The dashed part of the orbit path shows where the satellite is in the earth's shadow,  

DLR